Regional Weather Roundup
Issued by NWS

Home | Current Version | Previous Version | Text Only | Print | Product List | Glossary Off
Versions: 1 2 3 4 5 6 7 8 9 10 11 12 13 14 15 16 17 18 19 20 21 22 23 24 25 26 27 28 29 30 31 32 33 34 35 36 37 38 39 40 41 42 43 44 45 46 47 48 49 50

000
ASUS43 KOAX 221202
RWRNE

WEATHER ROUNDUP FOR NEBRASKA
NATIONAL WEATHER SERVICE OMAHA NE
600 AM CST WED FEB 22 2017

NOTES: SATELLITE DATA IS BEING USED TO AUGMENT CLOUD COVER ABOVE
       12000 FEET.
       "FAIR" INDICATES FEW OR NO CLOUDS BELOW 12,000 FEET WITH NO
       SIGNIFICANT WEATHER AND/OR OBSTRUCTIONS TO VISIBILITY.

  * THESE STATIONS DO NOT REPORT WEATHER SUCH AS RAIN...SNOW OR FOG.

NEZ001>004-019>022-054>056-221300-
NEBRASKA PANHANDLE

CITY           SKY/WX    TMP DP  RH WIND       PRES   REMARKS
SCOTTSBLUFF    CLEAR     42  29  59 W20       29.85R
6HR MIN TEMP:  40; 6HR MAX TEMP:  51;

ALLIANCE       CLEAR     35  29  78 W13       29.80F WCI  26
6HR MIN TEMP:  30; 6HR MAX TEMP:  45;

CHADRON        CLOUDY    42  32  67 W7        29.78R
6HR MIN TEMP:  40; 6HR MAX TEMP:  50; 6HR PCP: TRACE;

KIMBALL        CLEAR     38  31  73 NW20G28   29.86F WCI  29
SIDNEY         CLEAR     38  29  70 NW16      29.84S WCI  29
6HR MIN TEMP:  38; 6HR MAX TEMP:  56;

$$

NEZ057>060-069>072-079>082-221300-
SOUTHWEST NEBRASKA

CITY           SKY/WX    TMP DP  RH WIND       PRES   REMARKS
NORTH PLATTE   CLEAR     32  25  75 W8        29.78R WCI  25
6HR MIN TEMP:  27; 6HR MAX TEMP:  37;

IMPERIAL       CLEAR     41  26  55 NW13      29.83S
6HR MIN TEMP:  35; 6HR MAX TEMP:  48;

LEXINGTON      CLEAR     39  28  63 W15       29.73R WCI  31
MCCOOK         CLEAR     46  22  38 NW17      29.78R
6HR MIN TEMP:  37; 6HR MAX TEMP:  58;

OGALLALA       CLEAR     40  32  73 W6        29.83R
$$

NEZ005>010-023>029-035>040-094-221300-
NORTH CENTRAL NEBRASKA

CITY           SKY/WX    TMP DP  RH WIND       PRES   REMARKS
VALENTINE      CLEAR     36  30  79 SW13      29.70F WCI  27
6HR MIN TEMP:  33; 6HR MAX TEMP:  42;

AINSWORTH      CLEAR     44  36  73 W10       29.71F
BROKEN BOW     CLEAR     49  26  41 NW21      29.71R
6HR MIN TEMP:  33; 6HR MAX TEMP:  50;

O`NEILL        CLEAR     40  31  69 W8        29.67S
ORD            CLEAR     35  28  75 NW3       29.67S
6HR MIN TEMP:  34; 6HR MAX TEMP:  47;

THEDFORD       CLEAR     41  32  71 W8        29.77S
$$

NEZ041-046>049-061>064-073>077-083>087-221300-
SOUTH CENTRAL NEBRASKA

CITY           SKY/WX    TMP DP  RH WIND       PRES   REMARKS
GRAND ISLAND   CLEAR     41  29  62 SW6       29.69R
6HR MIN TEMP:  41; 6HR MAX TEMP:  54;

AURORA         CLEAR     43  28  54 SW10      29.67S
HASTINGS       CLOUDY    42  26  53 SW5       29.68F
6HR MIN TEMP:  40; 6HR MAX TEMP:  51;

HEBRON         CLOUDY    47  33  59 S16G22    29.68F
HOLDREGE       CLEAR     42  25  50 W9        29.70R
KEARNEY *      CLEAR     37  25  60 NW6       29.70R WCI  33
YORK           CLEAR     41  28  60 S9        29.68R
$$

NEZ011>018-030>034-042>045-221300-
NORTHEAST NEBRASKA

CITY           SKY/WX    TMP DP  RH WIND       PRES   REMARKS
NORFOLK        CLEAR     40  30  67 SW5       29.64F
6HR MIN TEMP:  36; 6HR MAX TEMP:  50;

ALBION         CLEAR     37  29  73 CALM      29.66S
BLAIR          CLEAR     48  35  60 SW5       29.68S
FREMONT        CLEAR     41  32  70 CALM      29.68S
TEKAMAH        PTCLDY    37  32  82 S3        29.67F
6HR MIN TEMP:  37; 6HR MAX TEMP:  50;

WAYNE          CLEAR     38  32  80 S9        29.64F WCI  31
$$

NEZ050>053-065>068-078-088>093-221300-
SOUTHEAST NEBRASKA

CITY           SKY/WX    TMP DP  RH WIND       PRES   REMARKS
LINCOLN        CLEAR     41  33  73 SE6       29.69F
6HR MIN TEMP:  40; 6HR MAX TEMP:  54;

OMAHA EPPLEY   CLEAR     46  35  65 SE12      29.68F
6HR MIN TEMP:  44; 6HR MAX TEMP:  51;

BEATRICE       CLEAR     47  35  62 S6        29.70F
FALLS CITY     PTCLDY    48  34  58 S8        29.73F
6HR MIN TEMP:  45; 6HR MAX TEMP:  54;

NEBRASKA CITY  CLEAR     46  30  53 S7        29.72F
PLATTSMOUTH    CLEAR     48  32  53 S8        29.70F
$$

NEZ044-045-051>053-067-221300-
OMAHA AREA

CITY           SKY/WX    TMP DP  RH WIND       PRES   REMARKS
OMAHA EPPLEY   CLEAR     46  35  65 SE12      29.68F
6HR MIN TEMP:  44; 6HR MAX TEMP:  51;

BLAIR          CLEAR     48  35  60 SW5       29.68S
FREMONT        CLEAR     41  32  70 CALM      29.68S
MILLARD        CLEAR     49  36  62 SE3       29.68F
PLATTSMOUTH    CLEAR     48  32  53 S8        29.70F
WAHOO          FAIR      44  32  63 CALM      29.66F
$$



USA.gov is the U.S. government's official web portal to all federal, state and local government web resources and services.